Regional Weather Roundup
Issued by NWS

Home | Current Version | Previous Version | Graphics & Text | Print | Product List | Glossary On
Versions: 1 2 3 4 5 6 7 8 9 10 11 12 13 14 15 16 17 18 19 20 21 22 23 24 25 26 27 28 29 30 31 32 33 34 35 36 37 38 39 40 41 42 43 44 45 46 47 48 49 50
000
ASUS43 KLOT 300403
RWRIL

ILLINOIS REGIONAL WEATHER ROUNDUP
NATIONAL WEATHER SERVICE CHICAGO/ROMEOVILLE IL
1100 PM CDT WED MAR 29 2017

NOTE: "FAIR" INDICATES FEW OR NO CLOUDS BELOW 12,000 FEET WITH NO
SIGNIFICANT WEATHER AND/OR OBSTRUCTIONS TO VISIBILITY.

* THESE STATIONS ARE NOT UNDER NWS QUALITY CONTROL. THEY ALSO MAY NOT
  REPORT WEATHER SUCH AS PRECIPITATION OR FOG.

ILZ001-002-007-009-015-016-024-300500-
NORTHWEST ILLINOIS

CITY           SKY/WX    TMP DP  RH WIND       PRES   REMARKS
MOLINE         LGT RAIN  43  39  86 E21G31    29.90F
STERLING*      CLOUDY    42  39  89 E25G31    29.94F
SAVANNA*       CLOUDY    42  38  89 NE18G30   29.98F
$$

ILZ003-004-008-010-011-017-018-300500-
NORTH CENTRAL ILLINOIS

CITY           SKY/WX    TMP DP  RH WIND       PRES   REMARKS
ROCKFORD       LGT RAIN  42  38  85 E17G28    30.04F
FREEPORT*      CLOUDY    40  38  93 NE20      30.03F
ROCHELLE*      CLOUDY    41  38  90 NE20      30.00F
DE KALB*       CLOUDY    43  39  85 E21G30    30.02F
PERU*          CLOUDY    44  40  86 E22G28    29.95F
$$

ILZ005-006-012>014-019>023-300500-
NORTHEAST ILLINOIS

CITY           SKY/WX    TMP DP  RH WIND       PRES   REMARKS
CHICAGO-OHARE  LGT RAIN  45  38  76 E12       30.04F
CHICAGO-MIDWAY LGT RAIN  46  39  76 NE18G28   30.04F
AURORA         LGT RAIN  45  38  76 NE18G31   30.00F
LANSING*       DRIZZLE   46  39  76 E10G17    30.02F
JOLIET*        RAIN      46  41  82 E12G17    30.01F
WAUKEGAN       LGT RAIN  41  39  93 NE15G26   30.07F
DUPAGE AIRPORT CLOUDY    43  41  93 NE16      30.02F
KANKAKEE*      CLOUDY    48  38  66 E23G29    29.97F
WHEELING       CLOUDY    43  39  86 E12       30.07F
MORRIS*        LGT RAIN  46  41  84 E13G18    29.99F
ROMEOVILLE*    CLOUDY    44  40  88 E16G24    30.00F
NORTHERLY ISL    N/A     41  38  89 NE13        N/A
$$

LMZ740>746-300500-
SOUTHERN LAKE MICHIGAN

STATION/POSITION SKY/WX   TEMP    WIND        PRES    VSBY  WAVE
                          AIR SEA DIR/SP/G                  HT/PER
                          (F)     (DEG/KT/KT) (MB)    (MI)  (FT/S)
HARRISON CRIB              43      60/ 19/ 20   N/A
BURNHAM HARBOR             42      40/ 10/ 13   N/A
CALUMET HARBOR             42      40/ 13/ 18 1017.0F
BURNS HARBOR               45      80/ 12/ 14 1018.3S
MICHIGAN CITY              47      70/ 13/ 14   N/A
$$

ILZ025>027-034>036-040-047-049-050-058-095>099-300500-
WEST-CENTRAL ILLINOIS

CITY           SKY/WX    TMP DP  RH WIND       PRES   REMARKS
QUINCY         LGT RAIN  53  49  86 E15G25    29.74F
GALESBURG*     CLOUDY    46  43  88 E22G28    29.84F
MACOMB*        CLOUDY    48  47  94 E17       29.85F
JACKSONVILLE*  TSTM      51  49  92 E15       29.79F
PITTSFIELD*    TSTM      53  52  96 NE8       29.77F
$$

ILZ028>032-037-038-041>044-048-051>054-059>061-300500-
CENTRAL ILLINOIS

CITY           SKY/WX    TMP DP  RH WIND       PRES   REMARKS
PONTIAC        CLOUDY    50  44  79 E22G30    29.93F
BLOOMINGTON    LGT RAIN  49  46  90 NE15      29.88F
DECATUR        CLOUDY    53  47  79 E15       29.85F
PEORIA         CLOUDY    50  45  83 E18G26    29.87F
LACON*         CLOUDY    46  44  91 E16G26    29.89F
LINCOLN*       TSTM      54  49  84 E14       29.84F
SPRINGFIELD    TSTM      55  48  77 E10       29.83F
TAYLORVILLE    NOT AVBL
$$

ILZ033-039-045-046-055>057-062-063-300500-
EAST-CENTRAL ILLINOIS

CITY           SKY/WX    TMP DP  RH WIND       PRES   REMARKS
CHAMPAIGN      CLOUDY    55  45  68 E15       29.88F
RANTOUL*       CLOUDY    55  47  76 E15       29.89F
MATTOON        CLOUDY    55  48  77 SE14      29.85F
PARIS*         CLOUDY    56  47  73 E13G20    29.89F
$$

ILZ079-100>102-300500-
SOUTHWEST ILLINOIS

CITY           SKY/WX    TMP DP  RH WIND       PRES   REMARKS
ALTON          CLOUDY    59  51  75 E14G20    29.76F
BELLEVILLE     CLOUDY    61  55  81 E10       29.76F
CAHOKIA*       MOCLDY    62  53  72 SE12      29.75F
SPARTA*        CLOUDY    62  54  75 E12       29.79S
$$

ILZ064>066-069>071-074>076-080>082-084>086-088>090-092>094-300500-
SOUTH-CENTRAL ILLINOIS

CITY           SKY/WX    TMP DP  RH WIND       PRES   REMARKS
CARBONDALE     PTCLDY    63  56  78 E9        29.78F
CAIRO*         CLEAR     68  58  71 SE7       29.78F
EFFINGHAM*     CLOUDY    58  51  78 E14       29.87F
MARION         MOCLDY    64  57  77 E6        29.81S
MT. VERNON     CLOUDY    62  53  72 E13       29.82F
CENTRALIA*     CLOUDY    63  54  73 SE12G17   29.80F
SALEM*         CLOUDY    62  51  68 E8        29.83S
METROPOLIS*    CLOUDY    66  57  74 SE3       29.81F
$$

ILZ067-068-072-073-078-083-087-091-300500-
SOUTHEAST ILLINOIS

CITY           SKY/WX    TMP DP  RH WIND       PRES   REMARKS
LAWRENCEVILLE  CLOUDY    58  50  75 E14       29.88F
FLORA*         CLOUDY    61  52  72 E12       29.85F
FAIRFIELD*     PTCLDY    61  52  71 E9        29.83F
HARRISBURG*    CLOUDY    62  56  79 E14       29.83S
ROBINSON*      CLOUDY    57  49  73 E10G18    29.89F
CARMI*         PTCLDY    61  54  77 E10       29.84F
$$

ABBREVIATIONS USED IN REMARKS
   TC - TEMPERATURE IN CELSIUS
  WCI - WIND CHILL INDEX
   HX - HEAT INDEX
  VSB - VISIBILITY
$$





USA.gov is the U.S. government's official web portal to all federal, state and local government web resources and services.